Time,TemperatureF,DewpointF,PressureIn,WindDirection,WindDirectionDegrees,WindSpeedMPH,WindSpeedGustMPH,Humidity,HourlyPrecipIn,Conditions,Clouds,dailyrainin,SoftwareType,DateUTC
2013-04-07 00:00:00,63.7,57.1,29.86,SSE,168,6.0,6.0,79,0.00,,,0.00,Wunderground v.1.15,2013-04-07 05:00:00,
2013-04-07 00:05:00,63.7,57.1,29.86,SSE,166,5.0,6.0,79,0.00,,,0.00,Wunderground v.1.15,2013-04-07 05:05:00,
2013-04-07 00:06:00,63.7,57.0,29.86,South,187,4.0,9.0,79,0.00,,,0.00,weatherlink.com 1.10,2013-04-07 05:06:00,
2013-04-07 00:15:00,63.6,57.0,29.86,SSE,165,6.0,6.0,79,0.00,,,0.00,Wunderground v.1.15,2013-04-07 05:15:00,
2013-04-07 00:20:00,63.6,57.0,29.86,SSE,167,6.0,6.0,79,0.00,,,0.00,Wunderground v.1.15,2013-04-07 05:20:00,
2013-04-07 00:21:00,63.6,57.0,29.86,South,182,7.0,9.0,79,0.00,,,0.00,weatherlink.com 1.10,2013-04-07 05:21:00,
2013-04-07 00:30:00,63.5,57.2,29.86,South,176,6.0,7.0,80,0.00,,,0.00,Wunderground v.1.15,2013-04-07 05:30:00,
2013-04-07 00:36:00,63.4,57.0,29.86,South,184,6.0,10.0,80,0.00,,,0.00,weatherlink.com 1.10,2013-04-07 05:36:00,
2013-04-07 00:45:00,63.2,56.9,29.87,South,169,5.0,6.0,80,0.00,,,0.00,Wunderground v.1.15,2013-04-07 05:45:00,
2013-04-07 00:50:00,63.1,56.8,29.87,South,174,4.0,4.0,80,0.00,,,0.00,Wunderground v.1.15,2013-04-07 05:50:00,
2013-04-07 00:51:00,63.1,57.0,29.87,South,173,3.0,8.0,80,0.00,,,0.00,weatherlink.com 1.10,2013-04-07 05:51:00,
2013-04-07 01:00:00,63.0,57.1,29.86,SSE,157,4.0,4.0,81,0.00,,,0.00,Wunderground v.1.15,2013-04-07 06:00:00,
2013-04-07 01:35:00,62.5,56.9,29.86,SSE,161,5.0,5.0,82,0.00,,,0.00,Wunderground v.1.15,2013-04-07 06:35:00,
2013-04-07 02:30:00,61.5,56.6,29.85,SSW,196,5.0,6.0,84,0.00,,,0.00,Wunderground v.1.15,2013-04-07 07:30:00,
2013-04-07 02:35:00,61.5,56.6,29.85,SSE,154,5.0,6.0,84,0.00,,,0.00,Wunderground v.1.15,2013-04-07 07:35:00,
2013-04-07 03:03:00,61.0,57.0,29.85,SE,129,4.0,8.0,85,0.00,,,0.00,weatherlink.com 1.10,2013-04-07 08:03:00,
2013-04-07 03:10:00,60.8,56.3,29.85,SE,144,4.0,4.0,85,0.00,,,0.00,Wunderground v.1.15,2013-04-07 08:10:00,
2013-04-07 03:45:00,59.8,55.9,29.84,SSE,159,5.0,5.0,87,0.00,,,0.00,Wunderground v.1.15,2013-04-07 08:45:00,
2013-04-07 03:50:00,59.7,55.8,29.84,SSE,158,5.0,5.0,87,0.00,,,0.00,Wunderground v.1.15,2013-04-07 08:50:00,
2013-04-07 03:54:00,59.6,56.0,29.84,SSE,147,4.0,10.0,87,0.00,,,0.00,weatherlink.com 1.10,2013-04-07 08:54:00,
2013-04-07 04:00:00,59.6,55.7,29.84,SSE,159,5.0,5.0,87,0.00,,,0.00,Wunderground v.1.15,2013-04-07 09:00:00,
2013-04-07 04:05:00,59.5,55.6,29.84,SSE,159,5.0,6.0,87,0.00,,,0.00,Wunderground v.1.15,2013-04-07 09:05:00,
2013-04-07 04:09:00,59.5,56.0,29.84,South,180,4.0,9.0,88,0.00,,,0.00,weatherlink.com 1.10,2013-04-07 09:09:00,
2013-04-07 04:15:00,59.4,55.8,29.84,SSE,156,5.0,7.0,88,0.00,,,0.00,Wunderground v.1.15,2013-04-07 09:15:00,
2013-04-07 04:20:00,59.4,55.8,29.84,SSE,159,5.0,5.0,88,0.00,,,0.00,Wunderground v.1.15,2013-04-07 09:20:00,
2013-04-07 04:24:00,59.3,56.0,29.84,SSE,163,4.0,7.0,88,0.00,,,0.00,weatherlink.com 1.10,2013-04-07 09:24:00,
2013-04-07 04:30:00,59.1,55.5,29.84,SSE,157,4.0,7.0,88,0.00,,,0.00,Wunderground v.1.15,2013-04-07 09:30:00,
2013-04-07 04:35:00,59.0,55.4,29.84,South,178,5.0,7.0,88,0.00,,,0.00,Wunderground v.1.15,2013-04-07 09:35:00,
2013-04-07 04:38:00,59.0,56.0,29.84,SE,142,6.0,9.0,88,0.00,,,0.00,weatherlink.com 1.10,2013-04-07 09:38:00,
2013-04-07 04:45:00,58.9,55.7,29.83,SE,146,5.0,5.0,89,0.00,,,0.00,Wunderground v.1.15,2013-04-07 09:45:00,
2013-04-07 04:50:00,58.8,55.6,29.83,SSE,164,6.0,6.0,89,0.00,,,0.00,Wunderground v.1.15,2013-04-07 09:50:00,
2013-04-07 04:54:00,58.8,56.0,29.83,SSE,157,6.0,9.0,89,0.00,,,0.00,weatherlink.com 1.10,2013-04-07 09:54:00,
2013-04-07 05:00:00,58.7,55.5,29.83,South,172,6.0,6.0,89,0.00,,,0.00,Wunderground v.1.15,2013-04-07 10:00:00,
2013-04-07 05:05:00,58.7,55.5,29.83,South,176,7.0,7.0,89,0.00,,,0.00,Wunderground v.1.15,2013-04-07 10:05:00,
2013-04-07 05:09:00,58.6,55.0,29.83,South,174,6.0,11.0,89,0.00,,,0.00,weatherlink.com 1.10,2013-04-07 10:09:00,
2013-04-07 05:10:00,58.6,55.4,29.83,South,180,7.0,8.0,89,0.00,,,0.00,Wunderground v.1.15,2013-04-07 10:10:00,
2013-04-07 05:20:00,58.5,55.6,29.83,South,178,6.0,7.0,90,0.00,,,0.00,Wunderground v.1.15,2013-04-07 10:20:00,
2013-04-07 05:24:00,58.5,56.0,29.83,South,170,6.0,13.0,90,0.00,,,0.00,weatherlink.com 1.10,2013-04-07 10:24:00,
2013-04-07 05:30:00,58.5,55.6,29.83,South,173,7.0,10.0,90,0.00,,,0.00,Wunderground v.1.15,2013-04-07 10:30:00,
2013-04-07 05:35:00,58.5,55.6,29.83,SSW,194,8.0,10.0,90,0.00,,,0.00,Wunderground v.1.15,2013-04-07 10:35:00,
2013-04-07 05:39:00,58.5,56.0,29.83,South,177,6.0,13.0,90,0.00,,,0.00,weatherlink.com 1.10,2013-04-07 10:39:00,
2013-04-07 05:40:00,58.5,55.6,29.83,SSE,168,8.0,8.0,90,0.00,,,0.00,Wunderground v.1.15,2013-04-07 10:40:00,
2013-04-07 05:50:00,58.5,55.6,29.83,SSE,168,7.0,7.0,90,0.00,,,0.00,Wunderground v.1.15,2013-04-07 10:50:00,
2013-04-07 05:54:00,58.5,56.0,29.83,SSE,166,7.0,11.0,90,0.00,,,0.00,weatherlink.com 1.10,2013-04-07 10:54:00,
2013-04-07 06:00:00,58.5,55.6,29.84,SSE,166,7.0,7.0,90,0.00,,,0.00,Wunderground v.1.15,2013-04-07 11:00:00,
2013-04-07 06:05:00,58.6,55.7,29.84,SE,146,8.0,8.0,90,0.00,,,0.00,Wunderground v.1.15,2013-04-07 11:05:00,
2013-04-07 06:09:00,58.6,56.0,29.84,South,184,8.0,10.0,90,0.00,,,0.00,weatherlink.com 1.10,2013-04-07 11:09:00,
2013-04-07 06:10:00,58.6,55.7,29.84,SSE,168,7.0,7.0,90,0.00,,,0.00,Wunderground v.1.15,2013-04-07 11:10:00,
2013-04-07 06:15:00,58.7,55.8,29.84,SSE,167,6.0,7.0,90,0.00,,,0.00,Wunderground v.1.15,2013-04-07 11:15:00,
2013-04-07 06:24:00,58.9,56.0,29.84,SSE,159,11.0,15.0,90,0.00,,,0.00,weatherlink.com 1.10,2013-04-07 11:24:00,
2013-04-07 06:30:00,59.0,56.1,29.84,South,188,8.0,8.0,90,0.00,,,0.00,Wunderground v.1.15,2013-04-07 11:30:00,
2013-04-07 06:35:00,59.0,56.1,29.84,SSE,156,8.0,8.0,90,0.00,,,0.00,Wunderground v.1.15,2013-04-07 11:35:00,
2013-04-07 06:39:00,59.1,56.0,29.84,SSE,163,11.0,15.0,90,0.00,,,0.00,weatherlink.com 1.10,2013-04-07 11:39:00,
2013-04-07 06:45:00,59.1,56.2,29.85,South,190,8.0,8.0,90,0.00,,,0.00,Wunderground v.1.15,2013-04-07 11:45:00,
2013-04-07 06:50:00,59.2,56.3,29.84,South,176,9.0,9.0,90,0.00,,,0.00,Wunderground v.1.15,2013-04-07 11:50:00,
2013-04-07 06:54:00,59.3,56.0,29.84,South,173,8.0,17.0,90,0.00,,,0.00,weatherlink.com 1.10,2013-04-07 11:54:00,
2013-04-07 07:00:00,59.3,56.4,29.84,South,191,9.0,9.0,90,0.00,,,0.00,Wunderground v.1.15,2013-04-07 12:00:00,
2013-04-07 07:09:00,59.4,57.0,29.85,SSW,196,7.0,12.0,90,0.00,,,0.00,weatherlink.com 1.10,2013-04-07 12:09:00,
2013-04-07 07:15:00,59.5,56.6,29.85,South,188,8.0,9.0,90,0.00,,,0.00,Wunderground v.1.15,2013-04-07 12:15:00,
2013-04-07 07:20:00,59.6,56.7,29.85,South,185,9.0,9.0,90,0.00,,,0.00,Wunderground v.1.15,2013-04-07 12:20:00,
2013-04-07 07:24:00,59.6,57.0,29.85,South,172,10.0,15.0,90,0.00,,,0.00,weatherlink.com 1.10,2013-04-07 12:24:00,
2013-04-07 07:25:00,59.7,56.8,29.85,South,175,9.0,9.0,90,0.00,,,0.00,Wunderground v.1.15,2013-04-07 12:25:00,
2013-04-07 07:35:00,60.0,57.1,29.85,South,175,10.0,12.0,90,0.00,,,0.00,Wunderground v.1.15,2013-04-07 12:35:00,
2013-04-07 07:40:00,60.2,56.9,29.85,SSE,167,10.0,10.0,89,0.00,,,0.00,Wunderground v.1.15,2013-04-07 12:40:00,
2013-04-07 07:41:00,60.2,57.0,29.85,SSE,157,7.0,15.0,89,0.00,,,0.00,weatherlink.com 1.10,2013-04-07 12:41:00,
2013-04-07 07:50:00,60.4,57.1,29.85,SSE,154,10.0,10.0,89,0.00,,,0.00,Wunderground v.1.15,2013-04-07 12:50:00,
2013-04-07 07:55:00,60.5,57.2,29.85,SSW,193,11.0,11.0,89,0.00,,,0.00,Wunderground v.1.15,2013-04-07 12:55:00,
2013-04-07 07:56:00,60.5,57.0,29.85,SSE,155,9.0,17.0,89,0.00,,,0.00,weatherlink.com 1.10,2013-04-07 12:56:00,
2013-04-07 08:00:00,60.6,57.3,29.86,South,181,10.0,10.0,89,0.00,,,0.00,Wunderground v.1.15,2013-04-07 13:00:00,
2013-04-07 08:05:00,60.7,57.4,29.86,South,179,10.0,13.0,89,0.00,,,0.00,Wunderground v.1.15,2013-04-07 13:05:00,
2013-04-07 08:09:00,60.8,57.0,29.86,SSE,163,11.0,20.0,88,0.00,,,0.00,weatherlink.com 1.10,2013-04-07 13:09:00,
2013-04-07 08:10:00,60.8,57.2,29.86,South,177,11.0,12.0,88,0.00,,,0.00,Wunderground v.1.15,2013-04-07 13:10:00,
2013-04-07 08:15:00,60.9,57.3,29.86,SSW,192,11.0,12.0,88,0.00,,,0.00,Wunderground v.1.15,2013-04-07 13:15:00,
2013-04-07 08:20:00,61.0,57.4,29.86,South,190,12.0,13.0,88,0.00,,,0.00,Wunderground v.1.15,2013-04-07 13:20:00,
2013-04-07 08:25:00,61.1,57.5,29.86,South,180,12.0,13.0,88,0.00,,,0.00,Wunderground v.1.15,2013-04-07 13:25:00,
2013-04-07 08:26:00,61.1,58.0,29.86,South,173,7.0,20.0,88,0.00,,,0.00,weatherlink.com 1.10,2013-04-07 13:26:00,
2013-04-07 08:35:00,61.2,57.6,29.86,South,188,10.0,15.0,88,0.00,,,0.00,Wunderground v.1.15,2013-04-07 13:35:00,
2013-04-07 08:41:00,61.3,58.0,29.86,South,174,10.0,19.0,88,0.00,,,0.00,weatherlink.com 1.10,2013-04-07 13:41:00,
2013-04-07 08:50:00,61.4,57.8,29.86,South,172,11.0,11.0,88,0.00,,,0.00,Wunderground v.1.15,2013-04-07 13:50:00,
2013-04-07 08:55:00,61.4,57.8,29.86,SSW,203,10.0,11.0,88,0.00,,,0.00,Wunderground v.1.15,2013-04-07 13:55:00,
2013-04-07 09:00:00,61.6,58.0,29.86,South,169,9.0,10.0,88,0.00,,,0.00,Wunderground v.1.15,2013-04-07 14:00:00,
2013-04-07 09:10:00,61.8,57.9,29.87,SSE,166,10.0,10.0,87,0.00,,,0.00,Wunderground v.1.15,2013-04-07 14:10:00,
2013-04-07 09:11:00,61.8,58.0,29.87,South,176,18.0,18.0,87,0.00,,,0.00,weatherlink.com 1.10,2013-04-07 14:11:00,
2013-04-07 09:20:00,62.1,58.2,29.86,SSE,157,12.0,12.0,87,0.00,,,0.00,Wunderground v.1.15,2013-04-07 14:20:00,
2013-04-07 09:25:00,62.2,58.3,29.86,South,170,11.0,12.0,87,0.00,,,0.00,Wunderground v.1.15,2013-04-07 14:25:00,
2013-04-07 09:30:00,62.3,58.4,29.86,SSW,198,12.0,12.0,87,0.00,,,0.00,Wunderground v.1.15,2013-04-07 14:30:00,
2013-04-07 09:40:00,62.5,58.3,29.86,South,171,11.0,11.0,86,0.00,,,0.00,Wunderground v.1.15,2013-04-07 14:40:00,
2013-04-07 09:45:00,62.5,58.3,29.86,SSW,196,12.0,12.0,86,0.00,,,0.00,Wunderground v.1.15,2013-04-07 14:45:00,
2013-04-07 09:50:00,62.6,58.4,29.85,SSE,163,12.0,13.0,86,0.00,,,0.00,Wunderground v.1.15,2013-04-07 14:50:00,
2013-04-07 09:55:00,62.7,58.5,29.86,South,171,12.0,15.0,86,0.00,,,0.00,Wunderground v.1.15,2013-04-07 14:55:00,
2013-04-07 09:56:00,62.7,59.0,29.86,SSE,168,20.0,21.0,86,0.00,,,0.00,weatherlink.com 1.10,2013-04-07 14:56:00,
2013-04-07 10:10:00,63.0,58.4,29.86,South,175,12.0,19.0,85,0.00,,,0.00,Wunderground v.1.15,2013-04-07 15:10:00,
2013-04-07 10:15:00,63.0,58.4,29.86,South,179,15.0,19.0,85,0.00,,,0.00,Wunderground v.1.15,2013-04-07 15:15:00,
2013-04-07 10:20:00,63.2,58.9,29.86,South,173,15.0,15.0,86,0.00,,,0.00,Wunderground v.1.15,2013-04-07 15:20:00,
2013-04-07 10:25:00,63.4,58.8,29.86,South,180,13.0,17.0,85,0.00,,,0.00,Wunderground v.1.15,2013-04-07 15:25:00,
2013-04-07 10:26:00,63.4,59.0,29.86,South,170,12.0,19.0,85,0.00,,,0.00,weatherlink.com 1.10,2013-04-07 15:26:00,
2013-04-07 10:35:00,63.5,58.9,29.87,South,185,13.0,13.0,85,0.00,,,0.00,Wunderground v.1.15,2013-04-07 15:35:00,
2013-04-07 10:40:00,63.7,59.1,29.86,SSW,194,12.0,13.0,85,0.00,,,0.00,Wunderground v.1.15,2013-04-07 15:40:00,
2013-04-07 10:41:00,63.7,59.0,29.86,South,189,13.0,21.0,85,0.00,,,0.00,weatherlink.com 1.10,2013-04-07 15:41:00,
2013-04-07 10:45:00,63.8,59.2,29.86,SW,221,12.0,13.0,85,0.00,,,0.00,Wunderground v.1.15,2013-04-07 15:45:00,
2013-04-07 10:55:00,64.2,58.9,29.86,SSW,202,12.0,12.0,83,0.00,,,0.00,Wunderground v.1.15,2013-04-07 15:55:00,
2013-04-07 10:56:00,64.2,59.0,29.86,South,175,21.0,23.0,83,0.00,,,0.00,weatherlink.com 1.10,2013-04-07 15:56:00,
2013-04-07 11:05:00,64.4,59.1,29.86,South,182,14.0,14.0,83,0.00,,,0.00,Wunderground v.1.15,2013-04-07 16:05:00,
2013-04-07 11:10:00,64.5,59.2,29.86,SSW,194,14.0,18.0,83,0.00,,,0.00,Wunderground v.1.15,2013-04-07 16:10:00,
2013-04-07 11:11:00,64.5,59.0,29.87,SSW,197,13.0,22.0,83,0.00,,,0.00,weatherlink.com 1.10,2013-04-07 16:11:00,
2013-04-07 11:20:00,64.9,59.3,29.87,SW,233,12.0,12.0,82,0.00,,,0.00,Wunderground v.1.15,2013-04-07 16:20:00,
2013-04-07 11:25:00,65.0,59.4,29.86,South,184,12.0,16.0,82,0.00,,,0.00,Wunderground v.1.15,2013-04-07 16:25:00,
2013-04-07 11:27:00,65.0,59.0,29.86,South,184,18.0,18.0,82,0.00,,,0.00,weatherlink.com 1.10,2013-04-07 16:27:00,
2013-04-07 11:35:00,65.0,59.4,29.86,South,187,15.0,17.0,82,0.00,,,0.00,Wunderground v.1.15,2013-04-07 16:35:00,
2013-04-07 11:40:00,65.2,59.6,29.86,SW,229,15.0,21.0,82,0.00,,,0.00,Wunderground v.1.15,2013-04-07 16:40:00,
2013-04-07 11:42:00,65.2,59.0,29.85,SSE,165,9.0,25.0,81,0.00,,,0.00,weatherlink.com 1.10,2013-04-07 16:42:00,
2013-04-07 11:50:00,65.5,59.5,29.85,South,187,13.0,13.0,81,0.00,,,0.00,Wunderground v.1.15,2013-04-07 16:50:00,
2013-04-07 11:57:00,65.5,60.0,29.85,South,187,15.0,21.0,81,0.00,,,0.00,weatherlink.com 1.10,2013-04-07 16:57:00,
2013-04-07 12:05:00,65.8,59.5,29.85,SSW,204,13.0,16.0,80,0.00,,,0.00,Wunderground v.1.15,2013-04-07 17:05:00,
2013-04-07 12:10:00,65.9,59.6,29.85,South,190,14.0,16.0,80,0.00,,,0.00,Wunderground v.1.15,2013-04-07 17:10:00,
2013-04-07 12:12:00,65.9,60.0,29.85,SSW,200,8.0,21.0,80,0.00,,,0.00,weatherlink.com 1.10,2013-04-07 17:12:00,
2013-04-07 12:25:00,66.5,59.8,29.84,SSW,209,13.0,14.0,79,0.00,,,0.00,Wunderground v.1.15,2013-04-07 17:25:00,
2013-04-07 12:27:00,66.7,60.0,29.84,South,184,10.0,24.0,78,0.00,,,0.00,weatherlink.com 1.10,2013-04-07 17:27:00,
2013-04-07 12:35:00,66.9,59.8,29.83,South,180,11.0,13.0,78,0.00,,,0.00,Wunderground v.1.15,2013-04-07 17:35:00,
2013-04-07 12:40:00,66.6,59.5,29.83,SE,130,11.0,12.0,78,0.00,,,0.00,Wunderground v.1.15,2013-04-07 17:40:00,
2013-04-07 12:42:00,66.6,60.0,29.83,SSE,162,11.0,17.0,78,0.00,,,0.00,weatherlink.com 1.10,2013-04-07 17:42:00,
2013-04-07 12:50:00,66.8,59.7,29.82,South,174,12.0,12.0,78,0.00,,,0.00,Wunderground v.1.15,2013-04-07 17:50:00,
2013-04-07 12:57:00,66.8,60.0,29.82,SE,144,10.0,20.0,78,0.00,,,0.00,weatherlink.com 1.10,2013-04-07 17:57:00,
2013-04-07 13:05:00,66.4,59.7,29.82,SSE,155,12.0,17.0,79,0.00,,,0.00,Wunderground v.1.15,2013-04-07 18:05:00,
2013-04-07 13:10:00,66.4,59.7,29.82,South,170,12.0,15.0,79,0.00,,,0.00,Wunderground v.1.15,2013-04-07 18:10:00,
2013-04-07 13:12:00,66.3,60.0,29.82,SE,146,17.0,19.0,79,0.00,,,0.00,weatherlink.com 1.10,2013-04-07 18:12:00,
2013-04-07 13:20:00,66.3,59.6,29.81,South,177,12.0,17.0,79,0.00,,,0.00,Wunderground v.1.15,2013-04-07 18:20:00,
2013-04-07 13:25:00,66.2,59.5,29.81,SSE,157,12.0,17.0,79,0.00,,,0.00,Wunderground v.1.15,2013-04-07 18:25:00,
2013-04-07 13:27:00,66.3,60.0,29.81,SE,145,13.0,21.0,79,0.00,,,0.00,weatherlink.com 1.10,2013-04-07 18:27:00,
2013-04-07 13:35:00,66.2,59.5,29.81,SSE,159,12.0,16.0,79,0.00,,,0.00,Wunderground v.1.15,2013-04-07 18:35:00,
2013-04-07 13:40:00,66.2,59.5,29.80,SSE,157,13.0,14.0,79,0.00,,,0.00,Wunderground v.1.15,2013-04-07 18:40:00,
2013-04-07 13:42:00,66.1,59.0,29.80,South,178,16.0,21.0,79,0.00,,,0.00,weatherlink.com 1.10,2013-04-07 18:42:00,
2013-04-07 13:50:00,66.3,59.6,29.80,South,178,12.0,15.0,79,0.00,,,0.00,Wunderground v.1.15,2013-04-07 18:50:00,
2013-04-07 13:55:00,66.2,59.5,29.80,SSE,161,11.0,15.0,79,0.00,,,0.00,Wunderground v.1.15,2013-04-07 18:55:00,
2013-04-07 13:59:00,66.2,60.0,29.80,SSE,151,12.0,21.0,79,0.00,,,0.00,weatherlink.com 1.10,2013-04-07 18:59:00,
2013-04-07 14:05:00,66.5,59.8,29.79,SSW,212,11.0,12.0,79,0.00,,,0.00,Wunderground v.1.15,2013-04-07 19:05:00,
2013-04-07 14:10:00,66.5,59.8,29.79,South,172,11.0,12.0,79,0.00,,,0.00,Wunderground v.1.15,2013-04-07 19:10:00,
2013-04-07 14:14:00,66.4,60.0,29.79,SSW,205,8.0,23.0,79,0.00,,,0.00,weatherlink.com 1.10,2013-04-07 19:14:00,
2013-04-07 14:20:00,66.5,59.8,29.78,South,171,11.0,12.0,79,0.00,,,0.00,Wunderground v.1.15,2013-04-07 19:20:00,
2013-04-07 14:25:00,66.4,59.7,29.78,SSE,152,12.0,12.0,79,0.00,,,0.00,Wunderground v.1.15,2013-04-07 19:25:00,
2013-04-07 14:29:00,66.5,60.0,29.78,SSE,168,7.0,26.0,79,0.00,,,0.00,weatherlink.com 1.10,2013-04-07 19:29:00,
2013-04-07 14:35:00,66.7,59.6,29.78,South,177,13.0,19.0,78,0.00,,,0.00,Wunderground v.1.15,2013-04-07 19:35:00,
2013-04-07 14:40:00,66.8,59.7,29.77,SE,134,13.0,13.0,78,0.00,,,0.00,Wunderground v.1.15,2013-04-07 19:40:00,
2013-04-07 14:44:00,67.0,60.0,29.77,SSE,167,9.0,22.0,78,0.00,,,0.00,weatherlink.com 1.10,2013-04-07 19:44:00,
2013-04-07 14:50:00,66.9,59.8,29.78,SE,144,12.0,16.0,78,0.00,,,0.00,Wunderground v.1.15,2013-04-07 19:50:00,
2013-04-07 14:55:00,66.8,59.7,29.77,SE,146,13.0,16.0,78,0.00,,,0.00,Wunderground v.1.15,2013-04-07 19:55:00,
2013-04-07 14:59:00,66.9,60.0,29.77,South,183,19.0,24.0,78,0.00,,,0.00,weatherlink.com 1.10,2013-04-07 19:59:00,
2013-04-07 15:05:00,66.9,59.8,29.78,South,186,14.0,21.0,78,0.00,,,0.00,Wunderground v.1.15,2013-04-07 20:05:00,
2013-04-07 15:10:00,66.7,59.6,29.77,South,171,13.0,13.0,78,0.00,,,0.00,Wunderground v.1.15,2013-04-07 20:10:00,
2013-04-07 15:13:00,66.8,60.0,29.77,SSE,148,9.0,22.0,78,0.00,,,0.00,weatherlink.com 1.10,2013-04-07 20:13:00,
2013-04-07 15:20:00,67.1,60.0,29.77,SSE,157,11.0,11.0,78,0.00,,,0.00,Wunderground v.1.15,2013-04-07 20:20:00,
2013-04-07 15:25:00,67.0,59.9,29.77,South,184,11.0,18.0,78,0.00,,,0.00,Wunderground v.1.15,2013-04-07 20:25:00,
2013-04-07 15:29:00,67.0,60.0,29.77,South,190,9.0,21.0,79,0.00,,,0.00,weatherlink.com 1.10,2013-04-07 20:29:00,
2013-04-07 15:30:00,67.0,60.3,29.77,SSW,199,13.0,13.0,79,0.00,,,0.00,Wunderground v.1.15,2013-04-07 20:30:00,
2013-04-07 15:40:00,67.3,60.2,29.77,SSE,155,10.0,16.0,78,0.00,,,0.00,Wunderground v.1.15,2013-04-07 20:40:00,
2013-04-07 15:50:00,67.4,60.3,29.76,SSW,198,13.0,13.0,78,0.00,,,0.00,Wunderground v.1.15,2013-04-07 20:50:00,
2013-04-07 15:55:00,67.5,60.4,29.76,South,186,13.0,16.0,78,0.00,,,0.00,Wunderground v.1.15,2013-04-07 20:55:00,
2013-04-07 15:59:00,67.5,60.0,29.76,South,175,11.0,22.0,78,0.00,,,0.00,weatherlink.com 1.10,2013-04-07 20:59:00,
2013-04-07 16:05:00,67.5,60.4,29.76,SSW,195,13.0,13.0,78,0.00,,,0.00,Wunderground v.1.15,2013-04-07 21:05:00,
2013-04-07 16:14:00,67.6,61.0,29.75,South,175,10.0,22.0,78,0.00,,,0.00,weatherlink.com 1.10,2013-04-07 21:14:00,
2013-04-07 16:20:00,67.6,60.5,29.74,SSE,163,13.0,13.0,78,0.00,,,0.00,Wunderground v.1.15,2013-04-07 21:20:00,
2013-04-07 16:25:00,67.7,60.2,29.74,South,190,14.0,22.0,77,0.00,,,0.00,Wunderground v.1.15,2013-04-07 21:25:00,
2013-04-07 16:29:00,67.8,60.0,29.75,SSW,204,13.0,25.0,77,0.00,,,0.00,weatherlink.com 1.10,2013-04-07 21:29:00,
2013-04-07 16:35:00,68.0,60.5,29.74,South,186,16.0,25.0,77,0.00,,,0.00,Wunderground v.1.15,2013-04-07 21:35:00,
2013-04-07 16:40:00,68.0,60.5,29.74,South,170,14.0,14.0,77,0.00,,,0.00,Wunderground v.1.15,2013-04-07 21:40:00,
2013-04-07 16:45:00,67.9,60.0,29.74,SSW,210,10.0,22.0,77,0.00,,,0.00,weatherlink.com 1.10,2013-04-07 21:45:00,
2013-04-07 16:50:00,67.9,60.4,29.74,SW,214,15.0,15.0,77,0.00,,,0.00,Wunderground v.1.15,2013-04-07 21:50:00,
2013-04-07 16:59:00,67.9,61.0,29.74,SSW,207,12.0,28.0,78,0.00,,,0.00,weatherlink.com 1.10,2013-04-07 21:59:00,
2013-04-07 17:05:00,67.9,60.4,29.73,South,182,16.0,21.0,77,0.00,,,0.00,Wunderground v.1.15,2013-04-07 22:05:00,
2013-04-07 17:10:00,68.0,60.9,29.73,South,185,15.0,15.0,78,0.00,,,0.00,Wunderground v.1.15,2013-04-07 22:10:00,
2013-04-07 17:20:00,68.2,60.7,29.73,SSW,196,13.0,13.0,77,0.00,,,0.00,Wunderground v.1.15,2013-04-07 22:20:00,
2013-04-07 17:25:00,68.2,60.7,29.73,South,186,11.0,13.0,77,0.00,,,0.00,Wunderground v.1.15,2013-04-07 22:25:00,
2013-04-07 17:29:00,68.2,61.0,29.73,South,184,14.0,22.0,77,0.00,,,0.00,weatherlink.com 1.10,2013-04-07 22:29:00,
2013-04-07 17:35:00,68.3,60.8,29.73,South,170,14.0,21.0,77,0.00,,,0.00,Wunderground v.1.15,2013-04-07 22:35:00,
2013-04-07 17:45:00,68.5,61.0,29.73,South,186,15.0,15.0,77,0.00,,,0.00,Wunderground v.1.15,2013-04-07 22:45:00,
2013-04-07 17:50:00,68.6,60.7,29.73,South,177,15.0,15.0,76,0.00,,,0.00,Wunderground v.1.15,2013-04-07 22:50:00,
2013-04-07 18:00:00,68.8,60.9,29.73,South,184,12.0,15.0,76,0.00,,,0.00,Wunderground v.1.15,2013-04-07 23:00:00,
2013-04-07 18:01:00,68.8,61.0,29.73,South,175,21.0,23.0,76,0.00,,,0.00,weatherlink.com 1.10,2013-04-07 23:01:00,
2013-04-07 18:10:00,68.9,61.0,29.72,SSW,194,14.0,14.0,76,0.00,,,0.00,Wunderground v.1.15,2013-04-07 23:10:00,
2013-04-07 18:16:00,68.9,61.0,29.72,South,183,19.0,27.0,76,0.00,,,0.00,weatherlink.com 1.10,2013-04-07 23:16:00,
2013-04-07 18:25:00,68.9,61.0,29.72,South,182,15.0,17.0,76,0.00,,,0.00,Wunderground v.1.15,2013-04-07 23:25:00,
2013-04-07 18:30:00,69.1,61.2,29.72,South,180,13.0,17.0,76,0.00,,,0.00,Wunderground v.1.15,2013-04-07 23:30:00,
2013-04-07 18:31:00,69.1,61.0,29.72,South,173,13.0,22.0,76,0.00,,,0.00,weatherlink.com 1.10,2013-04-07 23:31:00,
2013-04-07 18:40:00,68.6,61.1,29.71,SSE,160,14.0,14.0,77,0.00,,,0.00,Wunderground v.1.15,2013-04-07 23:40:00,
2013-04-07 18:45:00,68.5,61.0,29.71,SSE,161,13.0,18.0,77,0.00,,,0.00,Wunderground v.1.15,2013-04-07 23:45:00,
2013-04-07 18:50:00,68.7,61.2,29.71,South,191,14.0,14.0,77,0.00,,,0.00,Wunderground v.1.15,2013-04-07 23:50:00,
2013-04-07 18:55:00,68.7,61.2,29.70,South,186,13.0,23.0,77,0.00,,,0.00,Wunderground v.1.15,2013-04-07 23:55:00,
2013-04-07 19:00:00,68.6,61.1,29.70,SSE,160,14.0,15.0,77,0.00,,,0.00,Wunderground v.1.15,2013-04-08 00:00:00,
2013-04-07 19:10:00,68.5,61.0,29.70,South,171,13.0,13.0,77,0.00,,,0.00,Wunderground v.1.15,2013-04-08 00:10:00,
2013-04-07 19:15:00,68.4,61.3,29.70,South,182,13.0,18.0,78,0.00,,,0.00,Wunderground v.1.15,2013-04-08 00:15:00,
2013-04-07 19:16:00,68.4,61.0,29.70,SE,137,13.0,22.0,78,0.00,,,0.00,weatherlink.com 1.10,2013-04-08 00:16:00,
2013-04-07 19:20:00,68.4,61.3,29.70,South,179,12.0,20.0,78,0.00,,,0.00,Wunderground v.1.15,2013-04-08 00:20:00,
2013-04-07 19:25:00,68.3,61.2,29.70,SE,140,13.0,20.0,78,0.00,,,0.00,Wunderground v.1.15,2013-04-08 00:25:00,
2013-04-07 19:30:00,68.1,61.0,29.70,South,169,11.0,11.0,78,0.00,,,0.00,Wunderground v.1.15,2013-04-08 00:30:00,
2013-04-07 19:31:00,68.1,61.0,29.70,SE,127,11.0,18.0,78,0.00,,,0.00,weatherlink.com 1.10,2013-04-08 00:31:00,
2013-04-07 19:40:00,68.0,61.2,29.70,SSE,150,10.0,14.0,79,0.00,,,0.00,Wunderground v.1.15,2013-04-08 00:40:00,
2013-04-07 19:45:00,67.9,61.1,29.70,South,173,10.0,14.0,79,0.00,,,0.00,Wunderground v.1.15,2013-04-08 00:45:00,
2013-04-07 19:46:00,67.8,61.0,29.70,SE,134,7.0,18.0,79,0.00,,,0.00,weatherlink.com 1.10,2013-04-08 00:46:00,
2013-04-07 19:50:00,67.7,61.0,29.70,SSW,197,9.0,14.0,79,0.00,,,0.00,Wunderground v.1.15,2013-04-08 00:50:00,
2013-04-07 19:55:00,67.5,60.8,29.70,SSE,153,9.0,14.0,79,0.00,,,0.00,Wunderground v.1.15,2013-04-08 00:55:00,
2013-04-07 20:00:00,67.4,61.0,29.70,South,181,11.0,12.0,80,0.00,,,0.00,Wunderground v.1.15,2013-04-08 01:00:00,
2013-04-07 20:10:00,67.1,60.7,29.70,SSE,152,7.0,11.0,80,0.00,,,0.00,Wunderground v.1.15,2013-04-08 01:10:00,
2013-04-07 20:16:00,67.0,61.0,29.70,SSE,149,9.0,12.0,81,0.00,,,0.00,weatherlink.com 1.10,2013-04-08 01:16:00,
2013-04-07 20:25:00,66.8,60.8,29.70,SE,138,8.0,8.0,81,0.00,,,0.00,Wunderground v.1.15,2013-04-08 01:25:00,
2013-04-07 20:30:00,66.7,60.7,29.70,SSE,153,8.0,8.0,81,0.00,,,0.00,Wunderground v.1.15,2013-04-08 01:30:00,
2013-04-07 20:35:00,66.7,60.7,29.70,South,173,7.0,8.0,81,0.00,,,0.00,Wunderground v.1.15,2013-04-08 01:35:00,
2013-04-07 20:40:00,66.7,60.7,29.70,SSE,154,8.0,11.0,81,0.00,,,0.00,Wunderground v.1.15,2013-04-08 01:40:00,
2013-04-07 20:45:00,66.8,60.8,29.70,SSE,155,9.0,11.0,81,0.00,,,0.00,Wunderground v.1.15,2013-04-08 01:45:00,
2013-04-07 20:46:00,66.8,61.0,29.70,SSE,149,9.0,13.0,81,0.00,,,0.00,weatherlink.com 1.10,2013-04-08 01:46:00,
2013-04-07 20:55:00,66.8,60.8,29.70,SSE,157,8.0,8.0,81,0.00,,,0.00,Wunderground v.1.15,2013-04-08 01:55:00,
2013-04-07 21:00:00,66.8,60.8,29.70,SE,132,7.0,7.0,81,0.00,,,0.00,Wunderground v.1.15,2013-04-08 02:00:00,
2013-04-07 21:01:00,66.8,61.0,29.70,SE,138,5.0,15.0,81,0.00,,,0.00,weatherlink.com 1.10,2013-04-08 02:01:00,
2013-04-07 21:10:00,66.7,60.7,29.70,ESE,119,8.0,8.0,81,0.00,,,0.00,Wunderground v.1.15,2013-04-08 02:10:00,
2013-04-07 21:15:00,66.6,60.6,29.70,SE,140,8.0,8.0,81,0.00,,,0.00,Wunderground v.1.15,2013-04-08 02:15:00,
2013-04-07 21:17:00,66.6,61.0,29.70,SE,146,11.0,15.0,81,0.00,,,0.00,weatherlink.com 1.10,2013-04-08 02:17:00,
2013-04-07 21:30:00,66.7,60.7,29.71,South,186,10.0,10.0,81,0.00,,,0.00,Wunderground v.1.15,2013-04-08 02:30:00,
2013-04-07 21:32:00,66.7,61.0,29.71,SE,132,9.0,16.0,81,0.00,,,0.00,weatherlink.com 1.10,2013-04-08 02:32:00,
2013-04-07 21:35:00,66.8,60.8,29.71,ESE,123,9.0,11.0,81,0.00,,,0.00,Wunderground v.1.15,2013-04-08 02:35:00,
2013-04-07 21:45:00,66.7,60.7,29.71,SSE,159,8.0,9.0,81,0.00,,,0.00,Wunderground v.1.15,2013-04-08 02:45:00,
2013-04-07 21:47:00,66.7,61.0,29.72,SSE,153,9.0,18.0,81,0.00,,,0.00,weatherlink.com 1.10,2013-04-08 02:47:00,
2013-04-07 21:55:00,66.6,60.6,29.72,SSE,153,7.0,7.0,81,0.00,,,0.00,Wunderground v.1.15,2013-04-08 02:55:00,
2013-04-07 22:00:00,66.5,60.5,29.72,SE,136,6.0,6.0,81,0.00,,,0.00,Wunderground v.1.15,2013-04-08 03:00:00,
2013-04-07 22:02:00,66.5,61.0,29.72,South,170,9.0,11.0,81,0.00,,,0.00,weatherlink.com 1.10,2013-04-08 03:02:00,
2013-04-07 22:10:00,66.3,60.3,29.72,SSE,158,7.0,7.0,81,0.00,,,0.00,Wunderground v.1.15,2013-04-08 03:10:00,
2013-04-07 22:15:00,66.2,60.2,29.72,SSE,165,8.0,8.0,81,0.00,,,0.00,Wunderground v.1.15,2013-04-08 03:15:00,
2013-04-07 22:17:00,66.2,60.0,29.72,SSE,159,12.0,15.0,81,0.00,,,0.00,weatherlink.com 1.10,2013-04-08 03:17:00,
2013-04-07 22:25:00,66.1,60.4,29.72,SE,144,9.0,10.0,82,0.00,,,0.00,Wunderground v.1.15,2013-04-08 03:25:00,
2013-04-07 22:32:00,66.0,60.0,29.72,SE,135,8.0,14.0,82,0.00,,,0.00,weatherlink.com 1.10,2013-04-08 03:32:00,
2013-04-07 22:40:00,66.0,60.3,29.72,SE,134,9.0,12.0,82,0.00,,,0.00,Wunderground v.1.15,2013-04-08 03:40:00,
2013-04-07 22:47:00,65.9,60.0,29.71,SE,142,18.0,18.0,82,0.00,,,0.00,weatherlink.com 1.10,2013-04-08 03:47:00,
2013-04-07 22:50:00,65.9,60.2,29.71,SSE,165,9.0,10.0,82,0.00,,,0.00,Wunderground v.1.15,2013-04-08 03:50:00,
2013-04-07 23:00:00,65.8,60.2,29.71,SSE,152,9.0,9.0,82,0.00,,,0.00,Wunderground v.1.15,2013-04-08 04:00:00,
2013-04-07 23:02:00,65.8,60.0,29.71,SSE,147,8.0,19.0,82,0.00,,,0.00,weatherlink.com 1.10,2013-04-08 04:02:00,
2013-04-07 23:10:00,65.7,60.1,29.71,SE,128,8.0,10.0,82,0.00,,,0.00,Wunderground v.1.15,2013-04-08 04:10:00,
2013-04-07 23:15:00,65.6,60.0,29.71,SSE,156,8.0,10.0,82,0.00,,,0.00,Wunderground v.1.15,2013-04-08 04:15:00,
2013-04-07 23:17:00,65.6,60.0,29.71,SSE,148,7.0,14.0,82,0.00,,,0.00,weatherlink.com 1.10,2013-04-08 04:17:00,
2013-04-07 23:20:00,65.6,60.0,29.71,South,181,8.0,13.0,82,0.00,,,0.00,Wunderground v.1.15,2013-04-08 04:20:00,
2013-04-07 23:25:00,65.6,60.0,29.71,SE,130,9.0,13.0,82,0.00,,,0.00,Wunderground v.1.15,2013-04-08 04:25:00,
2013-04-07 23:34:00,65.6,60.0,29.71,SSE,164,7.0,16.0,82,0.00,,,0.00,weatherlink.com 1.10,2013-04-08 04:34:00,
2013-04-07 23:40:00,65.6,60.0,29.71,SE,144,9.0,9.0,82,0.00,,,0.00,Wunderground v.1.15,2013-04-08 04:40:00,
2013-04-07 23:45:00,65.5,59.9,29.71,SSE,160,9.0,11.0,82,0.00,,,0.00,Wunderground v.1.15,2013-04-08 04:45:00,
2013-04-07 23:48:00,65.5,60.0,29.71,SSE,154,8.0,14.0,82,0.00,,,0.00,weatherlink.com 1.10,2013-04-08 04:48:00,
2013-04-07 23:50:00,65.4,59.8,29.71,South,175,8.0,8.0,82,0.00,,,0.00,Wunderground v.1.15,2013-04-08 04:50:00,